Orlando, FL

2:10 PM EDT on August 24, 2016 (GMT -0400)
WFTV, Channel 9 | | Change Station

Elev 92 ft 28.54 °N, 81.37 °W | Updated 11 seconds ago

Overcast
Overcast
87.4 °F
Feels Like 98 °F
N
2.9
Wind Variable Wind from NE
Gusts 4.9 mph

Today
High -- | Low -- °F
--% Chance of Precip.
Yesterday
High -- | Low -- °F
Precip. -- in
Pressure 30.12 in
Visibility 10.0 miles
Clouds Mostly Cloudy 4300 ft
Overcast 5500 ft
Heat Index 98 °F
Dew Point 76 °F
Humidity 69%
Rainfall 0.33 in
Snow Depth Not available.
6:59 AM 7:55 PM
Waning Gibbous, 55% visible
METAR KORL 241753Z 05011KT 10SM BKN043 OVC055 31/23 A3011 RMK AO2 SLP199 60021 T03060228 10306 20256 58012
Pressure 30.12 in
Visibility 10.0 miles
Clouds Mostly Cloudy 4300 ft
Overcast 5500 ft
Heat Index 98 °F
Dew Point 76 °F
Humidity 69%
Rainfall 0.33 in
Snow Depth Not available.
6:59 AM 7:55 PM
Waning Gibbous, 55% visible
METAR KORL 241753Z 05011KT 10SM BKN043 OVC055 31/23 A3011 RMK AO2 SLP199 60021 T03060228 10306 20256 58012
A tropical disturbance we've monitored since last week, may have a dangerous future in store for the southeast U.S. and Gulf coasts this weekend into next week. The National Weather Service has issued a flash flood watch for Puerto Rico and the U.S. Virgin Islands. Rainfall totals of 2-4 inches (locally higher) are expected through Wednesday night in those areas.

The National Hurricane Center says this system has a medium to high chance of development into a tropical depression or tropical storm over the next 2 to 5 days. A tight consensus of our guidance suggests the disturbance should continue in a general west or west-northwest trajectory the next several days.

10-Day Weather Forecast

Almanac

Astronomy

Aug. 24, 2016 Rise Set
Actual Time
Civil Twilight
Nautical Twilight
Astronomical Twilight
Moon
Length of Visible Light
Length of Day
Tomorrow will be .
, % of the Moon is Illuminated

Today's Extremes

State Highs State Lows

Community

WunderPhotos

Upload Photos

1,934,662 photos uploaded!

WunderBlog® & News

Nearby

Air Quality

  Air Quality AQ Index Pollutant
Not available.

Snow Depth

Station Depth Elevation

Earthquake Activity

City Distance Mag. Time & Date
Minimum magnitude displayed is 2.5.

Coastal Water Temperatures

Place Temperature

Stations

Nearby Weather Stations

Station Location Temp. Windchill Dew Point Humidity Wind Precip. Elev Updated Type
                   

Watches & Warnings

There are currently no watches in effect.